Skip Page Navigation
NASA JPL Caltech
NASA Logo - Jet Propulsion Laboratory + View the NASA Portal
+ Near-Earth Object (NEO) Program
Search JPL
JPL Home Earth Solar System Stars & Galaxies Technology
JPL Solar System Dynamics
BODIES ORBITS EPHEMERIDES TOOLS PHYSICAL DATA DISCOVERY FAQ SITE MAP
JPL Small-Body Database Browser
Search: [ help ]  
20789 Hughgrant (2000 SU44)
Classification: Main-belt Asteroid          SPK-ID: 2020789
Ephemeris | Orbit Diagram | Orbital Elements | Physical Parameters | Discovery Circumstances ]

[ hide orbit diagram ]
Orbit Diagram
Note: Make sure you have Java enabled on your browser to see the applet. This applet is provided as a 3D orbit visualization tool. The applet was implemented using 2-body methods, and hence should not be used for determining accurate long-term trajectories (over several years or decades) or planetary encounter circumstances. For accurate long-term ephemerides, please instead use our Horizons system.
Orbit Viewer

Additional Notes: the orbits shown in the applet are color coded. The planets are white lines, and the asteroid/comet is a blue line. The bright white line indicates the portion of the orbit that is above the ecliptic plane, and the darker portion is below the ecliptic plane. Likewise for the asteroid/comet orbit, the light blue indicates the portion above the ecliptic plane, and the dark blue the portion below the ecliptic plane.

Orbit Viewer applet originally written and kindly provided by Osamu Ajiki (AstroArts), and further modified by Ron Baalke (JPL).


Orbital Elements at Epoch 2456400.5 (2013-Apr-18.0) TDB
Reference: JPL 1 (heliocentric ecliptic J2000)
 Element Value Uncertainty (1-sigma)   Units 
e .2416620345203827 1.3978e-07  
a 2.55166699107826 1.8364e-08 AU
q 1.935025954595785 3.6421e-07 AU
i 9.768578346392665 1.0604e-05 deg
node 66.45663893528675 3.9364e-05 deg
peri 14.3902285343586 4.1569e-05 deg
M 31.65761380125039 1.2767e-05 deg
tp 2456269.578764184523
(2012-Dec-08.07876418)
5.2576e-05 JED
period 1488.793349665227
4.08
1.6072e-05
4.4e-08
d
yr
n .2418065610522442 2.6104e-09 deg/d
Q 3.168308027560735 2.2802e-08 AU
  Orbit Determination Parameters
   # obs. used (total)      724  
   data-arc span      22340 days (61.16 yr)  
   first obs. used      1952-01-31  
   last obs. used      2013-03-31  
   planetary ephem.      DE405  
   SB-pert. ephem.      SB405-CPV-2  
   condition code      0  
   fit RMS      .55764  
   data source      ORB  
   producer      Otto Matic  
   solution date      2013-Apr-29 14:27:40  

Additional Information
 Earth MOID = .951443 AU 
 T_jup = 3.379 
[ show covariance matrix ]

Ephemeris | Orbit Diagram | Orbital Elements | Physical Parameters | Discovery Circumstances ]

Physical Parameter Table
Parameter Symbol Value Units Sigma Reference Notes
absolute magnitude H 12.9 mag n/a PDS3 (MPO 7943)  

20789 Hughgrant           Discovered 2000 Sept. 28 by C. W. Juels at Fountain Hills.
Hugh M. Grant (b. 1933) is a retired educator and businessman from Vancouver and a member of the Royal Astronomical Society of Canada. He recently completed construction of a roll-off roof observatory at his winter home in Fountain Hills, Arizona.
NOTE: some special characters may not display properly (any characters within {} are an attempt to place the proper accent above a character)
Reference: 20010804/MPCPages.arcLast Updated: 2009-05-11

Alternate Designations
 2000 SU44 = 1952 BA2 = 1989 FD1 = 1994 LE7 
Ephemeris | Orbit Diagram | Orbital Elements | Physical Parameters | Discovery Circumstances ]
ABOUT SSD CREDITS/AWARDS PRIVACY/COPYRIGHT GLOSSARY LINKS
FirstGov 2013-May-20 21:51 UT
(server date/time)  
NASA Home Page
Site Manager:   Donald K. Yeomans
Webmaster  Alan B. Chamberlin